{"data":{"norad_id":53156,"epoch":"2026-05-25T02:05:32.878176Z","epoch_age_seconds":60834,"freshness":"FRESH","line1":"1 53156U 22083AA  26145.08718609 -.00002303  00000+0 -12670-3 0  9990","line2":"2 53156  53.2154 181.0314 0001277  92.2461 267.8678 15.08828800212897","mean_motion":15.088288,"eccentricity":0.0001277,"inclination_deg":53.2154,"raan_deg":181.0314,"arg_perigee_deg":92.2461,"mean_anomaly_deg":267.8678,"bstar":-0.0001267,"rev_number":21289,"period_min":95.438263108445,"perigee_km":538.89420539787,"apogee_km":540.66104079261,"semimajor_km":6917.9146230952,"source":"CELESTRAK","updated_at":"2026-05-25T13:38:17.320545Z"}}